TimeCST,TemperatureF,Dew PointF,Humidity,Sea Level PressureIn,VisibilityMPH,Wind Direction,Wind SpeedMPH,Gust SpeedMPH,PrecipitationIn,Events,Conditions,WindDirDegrees,DateUTC
12:54 AM,33.1,27.0,78,30.04,10.0,East,10.4,-,N/A,,Overcast,100,2013-03-04 06:54:00
1:54 AM,33.1,27.0,78,30.02,8.0,ESE,13.8,-,0.00,Rain,Light Rain,110,2013-03-04 07:54:00
2:17 AM,33.8,28.4,81,30.00,7.0,East,13.8,-,0.01,Rain,Light Freezing Rain,100,2013-03-04 08:17:00
2:46 AM,33.8,28.4,81,30.00,10.0,East,15.0,-,0.01,,Overcast,100,2013-03-04 08:46:00
2:54 AM,33.1,28.0,82,30.01,10.0,East,12.7,-,0.01,,Overcast,100,2013-03-04 08:54:00
3:54 AM,33.1,28.0,82,29.98,10.0,East,17.3,-,0.01,,Overcast,100,2013-03-04 09:54:00
4:54 AM,33.1,28.0,82,29.97,10.0,ESE,15.0,-,N/A,,Mostly Cloudy,110,2013-03-04 10:54:00
5:54 AM,33.1,28.0,82,29.96,10.0,ESE,13.8,-,N/A,,Clear,110,2013-03-04 11:54:00
6:54 AM,33.1,27.0,78,29.95,10.0,ESE,12.7,-,N/A,,Clear,110,2013-03-04 12:54:00
7:54 AM,34.0,28.0,79,29.93,10.0,ESE,17.3,-,N/A,,Clear,110,2013-03-04 13:54:00
8:54 AM,37.0,28.0,70,29.91,10.0,ESE,16.1,-,N/A,,Clear,110,2013-03-04 14:54:00
9:54 AM,39.9,28.0,63,29.89,10.0,ESE,17.3,-,N/A,,Clear,120,2013-03-04 15:54:00
10:54 AM,42.1,28.9,60,29.86,10.0,SE,17.3,24.2,N/A,,Clear,130,2013-03-04 16:54:00
11:54 AM,46.9,30.9,54,29.83,10.0,SE,18.4,-,N/A,,Clear,140,2013-03-04 17:54:00
12:54 PM,48.9,33.1,54,29.81,10.0,SE,17.3,23.0,N/A,,Clear,130,2013-03-04 18:54:00
1:54 PM,48.9,32.0,52,29.78,10.0,SE,16.1,-,N/A,,Clear,130,2013-03-04 19:54:00
2:54 PM,50.0,34.0,54,29.77,10.0,SE,18.4,-,N/A,,Clear,130,2013-03-04 20:54:00
3:54 PM,50.0,35.1,57,29.77,10.0,ESE,11.5,-,N/A,,Clear,120,2013-03-04 21:54:00
4:54 PM,48.9,37.0,64,29.78,10.0,SE,12.7,-,N/A,,Clear,140,2013-03-04 22:54:00
5:54 PM,46.9,37.0,68,29.80,10.0,East,12.7,-,N/A,,Mostly Cloudy,100,2013-03-04 23:54:00
6:54 PM,45.0,36.0,71,29.81,10.0,East,11.5,-,N/A,,Overcast,100,2013-03-05 00:54:00
7:54 PM,44.1,36.0,73,29.82,10.0,East,11.5,-,N/A,,Overcast,80,2013-03-05 01:54:00
8:54 PM,43.0,35.1,74,29.83,10.0,ENE,8.1,-,N/A,,Overcast,70,2013-03-05 02:54:00
9:54 PM,43.0,34.0,71,29.83,10.0,ENE,6.9,-,N/A,,Overcast,70,2013-03-05 03:54:00
10:06 PM,42.8,33.8,70,29.83,10.0,NE,3.5,-,N/A,,Overcast,50,2013-03-05 04:06:00
10:46 PM,41.0,33.8,76,29.83,10.0,ENE,3.5,-,N/A,,Scattered Clouds,70,2013-03-05 04:46:00
10:54 PM,42.1,34.0,73,29.83,10.0,East,4.6,-,N/A,,Mostly Cloudy,80,2013-03-05 04:54:00
11:54 PM,39.0,33.1,79,29.82,10.0,NNE,6.9,-,N/A,,Clear,20,2013-03-05 05:54:00